Location: ????????
(55.4000°N, 39.1167°E)
Time: 03:33:12
(UTC+00:00)

Meteor 1-21 - Pass Details

Date: 19 May 2025
Orbit: 845 x 884 km, 81.2° (Epoch: 15 June)

Event Time Altitude Azimuth Distance (km) Brightness Sun altitude
Exits shadow 23:24:56 13° 201° (SSW) 2,284 5.8 -10.1°
Maximum altitude 23:30:03 75° 286° (WNW) 884 4.3 -9.7°
Drops below altitude 10° 23:35:43 10° 12° (NNE) 2,500 8.0 -9.3°
Sets 23:38:11 0° 15° (NNE) 3,445 9.0 -9.1°
